User: anonymous   Login
Location: Unspecified
(0.0000°N, 0.0000°E)
Time: 19:03:46
(UTC+00:00)
Language:

USA 227 - Orbit

View from above orbital plane
View from above orbital plane
View from above satellite
View from above satellite

Ground track
Ground track

The orbit data is extracted from the following two-line orbital elements,

1 37377U 11011A   17079.89837963 0.00000000  00000-0  00000-0 0    01
2 37377   4.5880   0.8100 0010600 193.9660 164.8022  1.00292280    01
Epoch (UTC): 20 March 2017 21:33:40
Eccentricity: 0.0010600
inclination: 4.5880°
perigee height: 35736 km
apogee height: 35825 km
right ascension of ascending node: 0.8100°
argument of perigee: 193.9660°
revolutions per day: 1.00292280
mean anomaly at epoch: 164.8022°
orbit number at epoch: 0

The dashed part of the orbit path shows where the satellite is in the earth's shadow,  

DLR